Theta_e
334 334 335 337 338 339 340 340 341 341 342 344 345 346 347 347 347 349 348 348 349 350 351 351 351 354 353 352 352 353 354 354 354 354 354 354 356 357 355 355 354 354 355 357 357 357 358 360 359 360 362 362 362 363 364 364 363 363 362 361 358 357 356
333 334 335 337 338 339 339 340 340 341 343 345 345 346 348 347 348 348 349 349 349 350 351 352 352 353 354 353 353 354 353 354 355 356 356 355 357 358 357 356 354 354 354 357 358 359 360 360 359 359 361 363 361 363 364 363 363 363 362 361 358 357 355
333 335 336 337 338 338 339 339 340 341 343 345 346 346 347 348 348 348 349 349 349 350 352 352 352 352 354 354 353 354 354 355 355 355 355 356 356 358 358 357 355 354 356 357 358 360 361 360 359 359 361 362 362 362 364 363 363 363 362 361 359 356 355
334 335 335 336 337 338 339 341 341 341 342 345 346 346 347 348 349 350 351 350 349 350 351 352 353 353 354 354 353 353 354 355 356 356 356 357 357 357 358 357 356 355 355 356 359 360 362 361 359 359 364 361 361 362 363 363 363 363 362 362 360 357 356
333 334 335 335 336 337 339 341 342 342 342 344 346 347 348 350 350 351 352 352 351 350 352 353 354 354 355 356 355 355 355 355 356 357 357 358 358 358 357 358 357 356 356 357 359 359 359 360 359 360 360 361 361 361 362 362 362 363 362 362 360 359 357
332 332 334 335 337 338 339 341 342 343 343 344 345 347 348 351 351 352 352 353 352 352 353 353 354 355 354 355 356 356 355 356 357 358 358 358 358 357 356 358 359 358 358 358 359 360 360 360 360 359 360 361 361 361 362 362 362 363 362 363 361 359 358
331 332 333 335 337 338 339 341 342 342 343 344 346 348 349 351 352 352 353 353 354 352 352 353 354 355 356 356 356 356 355 355 356 357 358 358 358 357 356 356 359 359 359 360 359 359 360 359 360 359 360 361 361 361 361 362 362 363 362 362 361 360 359
331 331 333 334 336 338 339 340 342 342 343 343 345 348 349 351 352 353 353 354 355 354 353 353 354 355 356 356 356 355 356 356 357 358 359 358 358 358 357 355 356 359 359 359 360 358 357 359 360 360 359 359 361 361 362 362 362 363 362 361 361 361 361
330 332 333 334 336 337 338 339 341 342 342 343 346 349 350 351 352 353 354 354 355 355 354 355 355 356 356 357 356 356 356 356 356 358 358 358 358 358 357 356 355 357 358 358 359 359 357 356 359 360 359 358 359 360 361 362 362 363 363 362 361 360 360
329 330 332 334 336 337 338 339 340 340 342 343 346 349 351 352 353 353 354 355 356 355 356 356 356 356 356 356 357 357 356 356 357 357 358 358 358 358 358 357 355 356 357 357 358 358 358 356 355 359 360 358 357 357 358 361 362 362 362 362 361 361 360
327 330 332 332 333 335 337 338 337 338 340 342 343 347 351 352 352 353 353 355 356 357 357 357 357 356 356 356 356 356 356 356 357 356 357 358 358 358 358 357 356 355 356 357 357 357 357 357 355 354 358 359 358 357 357 358 361 361 361 362 362 361 361
326 328 330 331 331 332 334 336 338 339 340 342 344 346 349 352 353 353 354 354 358 359 359 359 359 358 356 356 356 356 355 356 356 356 356 357 358 358 358 357 356 355 355 356 356 356 357 357 356 354 354 358 360 359 358 358 359 360 360 361 361 361 361
327 329 330 330 331 333 335 337 339 341 342 344 346 348 351 353 353 354 354 354 357 360 361 361 360 359 357 356 356 355 355 355 355 356 356 356 357 357 357 355 355 356 355 356 356 355 356 356 357 357 354 354 358 360 360 359 359 359 360 360 360 361 360
336 330 331 331 332 333 334 337 341 343 345 349 350 352 354 354 355 354 354 354 357 360 362 362 361 360 359 357 355 355 355 356 356 356 356 356 356 356 355 355 352 353 355 356 355 354 355 356 356 357 357 355 355 358 361 360 359 359 359 359 359 360 360
328 328 330 331 332 334 335 337 340 343 345 350 352 352 354 355 355 355 355 356 357 359 361 362 362 361 360 358 356 355 356 356 356 357 357 357 356 355 355 354 352 351 353 355 355 355 354 355 357 356 356 358 357 356 358 360 360 359 359 358 358 358 359
327 327 330 332 333 334 336 338 339 340 342 346 351 352 354 355 355 355 355 355 356 357 360 362 361 360 360 359 357 356 356 356 357 357 357 357 356 355 355 355 353 351 351 354 355 354 354 353 355 357 356 356 358 358 358 359 361 354 342 345 358 358 359
327 327 331 333 334 334 335 337 338 339 340 344 349 352 354 356 356 356 356 356 356 356 358 360 360 360 360 359 359 358 357 357 356 356 356 357 357 356 355 354 353 352 351 352 355 355 355 354 352 354 357 356 357 358 359 359 359 342 335 336 340 354 358
332 335 335 334 334 336 339 339 340 342 344 346 349 352 353 355 357 356 356 357 357 357 358 358 359 359 359 360 361 360 358 357 357 356 355 356 356 356 355 354 353 352 351 351 353 356 357 356 354 353 356 358 357 357 359 360 347 335 333 334 333 339 358
335 337 339 340 344 346 351 353 349 349 351 352 352 352 354 355 356 356 357 357 358 358 357 357 358 358 358 359 361 360 359 358 357 356 355 355 356 356 356 354 353 352 352 351 352 355 357 357 357 355 355 358 357 357 358 359 344 334 331 331 331 331 343
330 335 339 341 345 346 348 351 354 356 356 356 356 356 355 356 356 357 358 358 358 357 357 356 356 357 357 358 360 361 360 359 358 357 356 356 356 356 356 354 353 353 354 353 353 353 355 357 357 357 355 355 357 358 358 359 345 331 329 328 328 330 335
327 332 336 339 337 337 339 342 350 352 353 355 356 356 356 356 356 357 357 357 356 357 356 356 355 356 357 357 359 361 360 359 358 357 357 357 356 355 355 355 354 353 354 354 353 352 353 355 357 358 358 356 355 358 359 360 340 329 327 326 325 327 329
319 324 331 343 346 337 337 340 345 349 350 351 352 352 352 353 356 357 356 356 356 355 355 355 354 357 356 356 358 360 360 360 358 358 358 358 357 355 355 355 355 353 354 354 354 354 354 354 355 357 358 358 356 355 357 361 336 328 326 325 324 325 340
318 323 342 345 347 348 351 346 346 350 355 350 350 349 349 351 353 354 355 354 354 354 354 354 353 357 357 356 358 360 361 360 360 359 359 359 358 356 355 355 355 355 355 353 352 353 353 353 354 355 357 358 358 356 354 356 341 326 323 323 323 325 345
319 326 350 354 353 351 349 350 353 356 349 344 345 348 350 351 351 350 351 352 352 353 354 353 353 357 359 357 359 361 361 361 360 360 360 360 359 358 357 356 357 357 357 354 352 351 353 354 355 355 356 356 358 358 357 356 342 322 322 321 320 329 348
349 352 354 355 357 359 358 357 355 357 358 352 348 351 355 358 350 350 349 351 351 351 351 352 353 355 361 360 360 362 362 362 362 361 361 361 361 361 359 357 357 358 359 358 355 353 353 354 354 355 356 356 357 352 356 358 349 320 318 319 318 328 349
342 343 346 352 357 357 356 358 348 346 350 354 353 358 357 355 355 350 349 350 350 349 349 350 352 354 362 362 362 363 364 364 363 363 363 363 363 363 361 360 359 359 360 360 359 356 355 355 355 355 356 357 357 358 357 358 359 339 314 315 316 319 346
347 346 345 346 351 363 355 354 354 354 358 362 362 361 359 357 352 353 351 350 349 348 349 350 353 356 363 363 363 364 365 366 365 365 365 366 365 366 364 363 361 361 361 361 361 359 357 356 356 358 358 359 359 359 359 360 359 350 311 313 314 316 326
346 351 351 355 360 360 352 355 353 354 357 360 357 359 362 358 355 352 355 351 349 350 350 353 355 357 362 363 362 363 365 367 367 368 368 367 367 366 365 365 364 363 362 362 361 359 358 356 355 356 357 360 361 361 361 363 351 361 317 313 311 314 316
347 348 347 347 347 354 355 354 354 355 356 358 360 360 359 357 355 355 358 354 351 353 356 356 357 358 362 363 362 362 364 366 368 368 369 368 367 367 365 365 364 363 363 362 361 360 358 358 357 355 354 355 358 360 362 363 359 340 340 314 312 311 312
348 348 348 350 351 353 356 352 351 351 354 356 360 359 357 355 354 357 358 360 359 357 361 359 359 359 362 362 362 362 363 365 368 369 368 368 367 366 365 364 364 363 363 362 361 360 359 358 357 356 354 354 355 358 360 362 364 348 333 327 312 310 308
347 347 347 346 347 353 353 351 351 352 354 356 356 358 358 356 354 357 355 359 363 358 363 361 360 358 360 361 362 362 364 365 367 367 367 367 367 365 364 363 364 362 362 362 361 360 359 358 359 357 356 355 355 355 357 359 344 335 321 313 311 313 312
346 347 347 346 347 350 350 349 349 349 350 351 353 356 359 361 357 356 357 361 364 364 365 362 360 358 358 361 362 363 364 364 365 366 365 366 367 366 365 364 363 362 362 362 361 361 360 359 359 358 357 356 356 356 355 340 331 330 332 332 326 318 313
342 345 344 343 347 350 348 346 348 348 350 350 351 354 357 359 359 358 359 359 363 366 365 363 360 360 359 360 362 363 363 363 363 364 364 365 366 366 366 364 364 362 360 362 362 361 359 360 357 357 357 357 356 353 331 328 328 326 325 325 326 327 328
340 342 344 346 348 351 348 348 346 347 347 347 349 353 356 357 357 359 360 361 363 364 364 362 362 361 361 361 361 360 360 360 372 366 362 363 365 364 364 364 363 363 360 359 362 360 358 358 356 355 355 354 351 332 328 325 323 323 323 323 324 325 325
340 341 343 345 346 349 346 346 346 345 345 346 348 350 352 355 358 359 360 362 363 361 360 360 361 362 360 360 359 358 360 358 360 355 342 336 325 319 316 323 349 336 327 323 325 349 360 354 342 341 341 343 338 330 326 326 324 322 314 319 313 319 323
341 341 343 346 347 346 345 347 345 344 343 344 345 347 347 353 355 355 358 360 363 362 358 358 359 359 358 359 358 358 359 358 351 342 338 333 329 325 322 315 304 313 326 322 318 313 316 323 335 335 331 329 329 330 328 325 325 311 303 304 304 305 305
339 340 342 344 343 343 343 343 346 345 344 344 347 347 347 348 351 350 350 353 357 361 357 358 352 350 351 355 358 356 359 353 342 337 333 330 328 326 324 322 319 304 303 311 313 309 306 305 308 312 319 328 324 319 314 313 305 299 301 301 302 303 303
341 342 343 343 343 342 343 342 341 342 344 346 347 347 347 347 349 350 350 352 352 353 352 351 349 347 347 348 348 346 344 342 339 335 332 330 328 326 325 325 324 323 308 301 305 307 306 305 305 306 309 314 319 322 317 305 299 300 300 302 303 304 303
Wind_Speed
21 18 17 16 17 17 18 18 18 18 17 16 17 17 18 17 17 16 16 18 20 18 17 17 17 14 16 15 14 13 12 12 11 11 11 10 9 10 11 10 9 8 8 9 10 11 10 9 9 9 8 9 9 8 8 7 7 7 6 6 7 7 7
19 18 18 17 17 18 17 17 17 16 15 16 16 17 15 17 16 17 17 18 19 20 19 18 18 16 16 15 14 14 14 14 13 10 9 9 8 8 10 11 10 8 8 9 9 9 9 10 10 9 9 9 9 8 8 8 8 7 7 6 7 7 7
21 19 19 17 18 17 18 17 17 17 17 16 16 17 18 18 18 19 17 18 19 18 17 18 18 18 16 15 14 15 15 14 13 13 12 12 12 11 10 11 10 9 9 8 8 8 9 9 9 9 9 10 10 9 8 8 8 8 7 6 7 8 8
19 19 19 20 18 18 19 20 20 18 17 19 20 21 19 18 16 16 16 18 19 18 19 18 17 17 15 15 16 15 16 15 15 14 14 12 12 10 9 11 10 10 8 9 9 8 8 9 10 9 10 10 10 10 9 9 8 8 8 8 7 8 8
19 19 17 16 16 14 15 15 17 17 18 20 21 20 18 15 15 14 15 17 19 20 20 19 16 15 14 14 13 13 15 17 15 14 13 12 11 11 11 12 12 12 11 9 8 8 8 8 9 9 9 9 10 10 10 9 9 9 8 8 7 7 8
19 18 16 17 16 16 17 17 19 20 20 19 19 17 17 17 16 18 18 18 18 17 16 16 16 15 15 15 14 14 14 15 14 14 14 13 13 12 12 11 11 11 11 11 8 9 10 9 10 10 10 10 10 11 10 10 10 10 9 8 8 8 8
19 18 17 18 17 17 18 18 19 20 20 19 18 17 17 17 19 19 17 18 18 19 19 19 19 17 16 15 15 15 16 16 15 15 13 13 13 12 12 10 10 11 10 9 10 9 11 11 11 11 11 11 11 11 11 10 10 10 9 9 9 9 9
21 18 18 19 18 18 18 17 18 18 16 15 16 17 19 18 17 18 19 19 18 18 18 19 18 17 17 16 16 18 17 17 15 15 13 15 15 14 13 12 11 11 10 11 12 11 11 12 11 11 12 11 11 12 11 11 11 11 10 10 10 10 8
20 19 19 18 18 18 17 17 16 17 18 18 19 20 21 19 19 19 20 19 18 19 20 20 20 18 16 15 16 18 17 17 16 16 16 17 15 16 14 14 12 11 12 12 11 11 11 11 11 12 12 12 11 11 11 12 11 11 10 11 11 12 10
19 17 17 18 17 17 16 15 14 13 15 17 16 16 19 19 18 17 17 18 18 20 21 20 18 17 17 16 16 16 15 15 15 17 17 17 15 17 15 14 13 11 12 12 11 12 11 12 11 10 12 12 12 11 11 12 12 11 11 12 12 12 12
18 19 19 18 17 15 14 14 16 15 16 16 16 17 18 18 17 17 18 17 18 19 20 19 18 18 18 18 19 17 16 16 15 16 17 17 15 16 16 15 14 12 13 12 12 12 11 11 11 10 11 12 13 13 12 12 13 13 13 12 12 13 12
19 19 19 20 17 14 16 17 16 15 17 16 16 16 16 17 18 18 18 19 17 17 17 18 17 18 18 18 18 18 19 18 17 17 18 18 16 16 16 15 14 14 13 13 13 13 12 12 11 12 13 12 13 13 13 12 12 13 13 13 12 12 12
17 15 19 21 18 17 16 14 18 19 18 17 16 16 15 17 17 17 17 18 17 16 16 17 17 18 18 18 19 18 19 18 18 17 17 17 16 14 14 15 14 14 15 14 14 13 13 13 13 12 13 14 13 13 13 13 13 12 12 12 12 13 12
17 16 18 18 19 20 18 18 17 17 16 17 17 16 16 17 17 17 17 18 17 17 17 16 17 18 18 18 18 18 19 18 18 17 17 16 15 15 15 15 14 14 13 14 15 14 13 13 14 13 12 13 13 13 12 12 12 12 12 12 12 12 13
19 17 16 17 19 20 20 17 16 17 16 17 17 16 16 16 16 15 15 16 17 17 18 17 17 18 18 18 18 18 17 16 16 16 16 16 16 15 15 15 14 14 13 13 14 13 14 13 13 14 13 12 13 13 12 12 12 11 12 12 13 13 14
21 18 16 15 17 18 17 18 17 16 15 14 16 16 16 16 16 17 17 16 17 17 16 16 17 18 18 18 18 17 16 16 15 15 16 16 16 16 16 14 14 14 14 14 15 14 14 14 13 13 14 13 13 13 12 12 10 14 20 17 14 14 12
17 17 13 13 14 16 16 16 15 14 15 15 16 17 16 16 16 16 17 17 17 18 17 16 17 18 18 18 17 17 17 16 16 15 16 16 16 16 16 16 14 14 14 14 14 14 14 14 15 13 13 14 14 14 12 12 11 18 19 20 21 16 13
11 8 9 13 13 11 12 13 13 15 16 16 16 16 15 13 14 15 17 16 17 16 16 15 16 18 17 17 16 17 17 16 16 16 17 15 16 16 16 15 15 14 14 14 14 13 13 14 15 14 13 13 14 14 14 13 16 19 20 21 21 19 15
11 10 12 10 9 10 11 12 13 14 14 15 16 16 16 14 14 15 15 15 14 13 15 15 15 16 17 16 16 17 16 16 16 17 16 17 17 15 15 15 15 15 14 15 14 12 14 15 14 14 13 13 15 15 15 14 18 19 20 20 20 21 18
7 13 13 11 12 12 9 8 9 9 12 12 12 13 13 12 13 14 14 14 12 14 15 15 14 14 16 16 16 17 16 16 16 16 17 16 16 15 15 15 16 16 15 13 12 13 13 13 15 14 14 13 14 15 15 15 16 20 21 21 21 21 19
10 5 4 9 10 8 7 9 8 7 7 7 8 8 8 8 8 8 10 11 13 13 13 14 13 12 14 16 16 16 16 16 16 16 16 15 15 15 15 16 15 15 14 13 14 14 14 14 14 14 14 15 13 12 14 13 19 20 22 22 22 22 19
6 6 7 4 3 4 10 9 9 8 7 6 6 6 6 7 7 9 10 10 12 12 12 12 13 12 14 15 15 16 17 17 16 16 15 15 14 15 15 14 15 15 14 13 12 12 11 11 12 13 13 14 14 13 13 13 19 21 22 23 21 21 14
4 8 11 7 8 6 2 5 7 8 5 5 6 6 7 8 7 7 8 9 10 10 12 11 13 12 13 15 15 16 16 16 16 16 15 15 15 16 16 15 14 13 11 12 12 12 13 13 14 13 13 14 14 15 14 13 16 20 21 21 22 16 12
5 6 9 10 8 6 7 7 6 5 5 5 4 5 6 8 8 8 7 9 8 9 10 11 12 10 12 14 15 15 15 15 16 15 15 15 16 17 16 14 12 12 11 12 13 13 14 13 12 11 12 14 15 15 14 14 12 18 20 20 20 18 13
16 13 10 8 8 10 7 6 5 4 4 1 1 2 3 4 8 10 9 8 10 9 9 10 10 10 11 12 13 14 14 15 15 15 15 16 16 14 14 14 13 12 10 11 11 11 9 9 10 11 11 12 13 14 14 11 10 13 16 18 18 17 12
13 12 11 9 8 7 5 5 5 3 2 1 4 4 0 3 4 7 10 10 10 11 11 10 9 7 7 10 12 12 13 13 14 14 15 15 13 12 12 10 10 11 11 11 10 10 10 9 9 11 11 10 11 10 10 9 8 8 15 17 18 20 14
9 10 9 8 7 5 3 3 3 2 2 0 2 4 3 0 2 4 6 7 9 12 13 9 7 8 8 9 10 11 13 12 13 14 13 12 12 11 10 10 11 10 10 11 9 9 9 10 7 8 8 8 9 9 8 8 7 7 15 17 20 22 20
7 9 9 6 7 5 4 2 4 6 6 4 5 5 4 2 1 2 4 6 10 13 8 7 8 9 9 10 11 11 11 12 11 12 11 10 10 10 9 8 9 9 10 9 8 10 10 9 8 7 5 6 6 7 7 7 10 6 13 17 19 20 24
10 9 8 8 7 6 4 4 5 6 5 5 6 6 5 4 4 3 4 7 11 6 7 9 9 9 9 10 10 11 11 10 11 10 8 9 10 10 9 8 8 8 8 8 8 9 9 9 8 7 5 4 4 4 6 6 7 12 11 17 20 21 22
8 8 9 9 8 7 6 5 5 5 5 4 5 4 4 4 5 4 4 7 5 7 7 9 9 10 10 10 10 10 10 10 10 10 9 9 9 9 9 8 8 8 8 8 9 8 8 8 7 7 6 6 3 2 3 4 2 2 5 2 7 5 7
10 9 9 8 7 5 4 5 5 4 4 5 7 7 6 4 3 5 4 3 5 8 8 8 9 10 9 10 10 10 10 9 9 10 9 8 9 9 9 8 8 8 7 8 8 8 8 7 7 7 7 6 6 4 3 6 9 6 7 8 9 10 10
7 7 7 6 6 7 5 5 2 2 4 6 7 7 7 5 0 2 1 2 1 5 7 9 9 9 9 9 9 10 10 10 9 9 8 8 8 8 8 9 8 8 7 7 7 7 7 7 7 7 6 7 6 6 5 9 6 7 5 5 6 5 5
6 5 5 5 5 5 5 5 5 6 6 7 7 7 6 5 4 3 2 4 3 4 6 7 8 8 8 8 8 8 9 9 8 8 7 7 6 6 7 7 8 7 7 7 7 7 7 7 8 7 7 7 7 5 9 6 6 5 5 4 5 5 3
5 5 5 5 6 6 6 6 6 6 6 6 6 7 6 6 5 5 4 4 4 4 6 7 7 8 7 8 8 7 8 8 10 10 7 5 5 6 7 7 8 7 6 6 8 8 6 7 7 7 7 6 7 9 7 7 5 4 4 4 4 4 4
6 6 6 8 6 5 4 4 5 6 6 6 7 7 7 6 6 7 6 5 3 4 6 7 6 7 7 7 7 7 6 7 7 8 9 9 11 10 8 6 3 7 7 5 3 4 7 6 6 6 7 8 8 9 8 5 5 1 1 2 2 3 4
7 6 5 5 4 4 4 4 4 4 4 4 4 5 6 5 5 6 6 5 2 3 4 5 6 6 6 7 6 6 6 7 8 9 9 10 9 11 12 16 18 11 7 6 9 17 14 12 7 7 9 11 7 4 7 7 5 6 5 3 1 1 2
6 5 5 4 3 3 3 3 2 3 3 3 4 4 4 3 4 5 6 5 4 2 4 5 6 6 5 5 4 6 6 9 9 8 9 9 10 11 12 11 13 18 18 14 14 18 20 20 18 16 13 14 10 8 13 12 11 9 7 6 5 5 4
5 4 4 2 2 1 0 1 1 2 1 2 4 4 6 7 6 6 6 5 5 7 7 7 7 7 6 6 7 10 10 10 10 10 10 9 10 12 12 12 12 10 15 17 16 20 21 20 19 17 15 15 13 10 6 8 9 10 9 7 6 4 3
Wind_Direction
176 181 182 177 177 177 180 181 177 177 177 178 178 177 176 176 175 173 177 180 182 180 182 183 187 185 186 189 189 188 189 189 190 191 190 194 192 186 187 194 194 193 181 179 183 185 186 181 181 181 180 182 182 183 186 184 186 191 179 174 173 172 171
178 180 179 178 179 180 180 179 176 176 176 178 179 177 176 178 175 176 177 180 182 181 181 184 188 190 189 190 189 188 189 192 194 194 193 194 193 190 189 190 194 191 187 182 179 184 177 183 180 179 181 182 186 181 183 185 184 184 186 172 171 175 172
178 178 177 177 179 182 182 179 179 179 178 177 177 179 180 181 179 177 176 179 182 182 181 187 190 191 190 188 188 191 191 192 194 195 195 195 195 192 187 188 193 194 192 184 177 178 180 178 182 180 179 183 186 184 182 184 184 185 188 179 170 178 181
174 177 179 180 180 180 179 180 182 182 181 179 181 185 186 181 178 176 175 179 181 181 185 188 191 194 192 189 191 191 192 193 195 196 198 196 195 193 186 189 191 193 194 192 184 179 178 178 180 182 182 183 186 188 184 186 185 184 188 182 176 183 186
178 179 175 173 176 180 181 177 179 181 184 185 186 185 182 177 176 175 177 179 181 186 187 187 189 193 194 194 194 194 194 194 196 197 199 198 196 196 195 191 190 192 195 191 184 182 179 179 184 183 188 185 187 187 189 187 188 185 183 184 182 183 190
179 176 174 176 178 182 184 180 178 181 182 184 183 180 181 177 178 180 181 179 184 185 184 185 189 191 196 197 195 198 198 199 198 196 195 196 194 199 202 196 190 190 188 193 183 184 184 185 187 188 188 189 187 189 190 190 191 187 185 183 190 187 190
178 174 173 180 181 182 184 182 183 184 182 182 178 179 181 181 183 182 180 183 181 182 185 188 191 191 196 195 199 197 197 198 198 198 196 196 199 201 202 199 192 191 190 184 191 182 185 189 190 191 190 188 190 190 190 191 191 189 187 188 192 194 195
173 173 178 179 179 182 183 183 185 186 182 178 178 179 184 186 182 181 185 184 183 184 186 189 190 194 195 196 198 198 197 198 197 197 194 195 197 200 200 200 196 191 185 188 194 188 185 189 191 192 192 190 190 192 191 192 192 190 188 191 193 196 195
172 173 176 179 181 179 181 181 180 180 178 181 181 181 184 182 184 186 186 183 184 185 189 190 192 194 194 197 199 201 199 196 196 195 196 197 197 200 199 199 199 191 191 192 191 193 193 188 188 191 192 195 191 190 191 191 193 192 191 194 194 196 198
171 176 177 180 182 182 181 179 175 173 179 182 180 178 182 185 185 185 185 185 185 189 189 189 191 192 194 197 201 202 201 200 199 197 197 199 199 200 199 196 197 195 195 195 192 191 195 194 190 185 191 195 196 193 190 191 194 194 194 195 196 197 200
171 176 180 179 181 179 176 177 178 181 183 186 186 182 182 183 183 184 187 186 188 191 189 189 189 191 194 196 198 198 200 201 199 200 201 202 201 201 198 197 196 196 197 195 196 194 192 194 193 190 189 195 197 198 196 193 194 196 196 196 198 199 200
174 175 177 179 175 167 174 180 181 183 187 189 190 188 184 184 186 185 184 189 187 187 189 191 190 192 195 197 198 198 199 200 199 200 201 203 204 202 199 197 196 196 199 196 197 196 195 193 193 195 195 197 198 198 200 198 196 197 198 197 198 200 202
177 179 180 174 170 176 176 173 178 184 187 188 188 189 188 187 187 186 184 185 186 185 185 187 190 193 195 197 199 200 200 199 200 199 200 201 203 202 200 200 198 196 198 197 199 197 196 196 196 196 198 201 198 199 199 200 200 198 200 200 198 200 202
177 177 177 173 175 177 178 178 178 180 180 181 184 185 186 188 187 186 183 185 186 183 184 186 189 192 195 196 198 201 201 200 199 199 199 199 200 201 201 201 201 200 197 196 200 201 199 196 198 199 199 201 202 202 199 200 202 201 200 201 200 199 203
176 177 174 174 175 177 178 174 175 178 179 183 183 183 181 184 185 185 185 185 185 186 187 183 186 190 193 194 198 201 201 200 200 199 198 197 198 200 202 202 201 201 198 196 200 202 203 202 198 200 202 201 202 204 203 201 203 202 201 201 202 201 202
173 172 168 170 171 172 172 173 176 177 176 179 183 186 183 182 183 185 185 185 186 189 186 183 187 189 191 194 196 198 198 198 199 198 197 196 196 199 200 200 200 201 201 200 200 201 202 204 203 201 202 202 203 204 205 206 205 205 201 199 201 203 203
165 166 157 158 166 170 172 173 173 176 179 182 186 188 188 184 184 184 185 185 186 189 188 185 187 189 190 192 192 193 194 195 197 196 198 199 197 196 198 199 199 200 201 201 199 199 199 201 205 203 200 202 203 204 207 208 210 204 200 201 202 202 204
128 118 139 156 164 164 172 176 175 177 181 185 188 190 189 184 181 183 188 187 189 188 188 188 187 190 192 190 188 191 191 194 194 195 198 197 199 197 198 198 198 200 201 200 200 199 197 201 204 204 200 201 204 206 208 211 209 203 203 203 203 202 205
129 134 133 136 139 150 157 169 175 177 180 183 189 189 188 179 178 185 187 188 188 184 191 193 189 189 190 188 187 189 190 191 193 195 196 198 199 199 197 198 200 201 199 201 201 196 198 202 200 204 203 200 202 208 209 213 207 201 202 203 203 205 207
140 152 151 152 154 155 153 145 152 162 170 176 181 185 183 178 180 185 185 184 181 186 192 195 191 188 189 188 187 187 187 189 192 194 197 197 198 198 198 199 202 202 200 200 196 198 201 200 202 203 204 203 201 207 211 212 207 200 201 203 203 205 206
93 70 99 141 139 133 144 147 151 154 149 157 161 161 162 175 177 170 179 181 185 189 190 195 194 185 188 189 188 185 186 187 190 194 195 196 197 198 200 201 204 203 201 198 198 199 200 199 201 204 205 207 205 205 211 214 206 199 201 202 203 205 203
113 121 127 122 112 156 162 153 152 157 165 161 147 160 160 168 171 171 183 182 186 190 191 192 195 187 185 189 187 187 186 186 189 191 192 192 194 198 203 203 203 202 202 201 202 203 202 205 206 205 206 208 209 209 212 215 205 200 200 201 203 201 204
152 139 139 153 139 128 129 146 145 156 154 152 170 168 176 174 168 172 175 184 186 184 192 191 196 189 186 187 187 188 186 186 188 189 190 190 191 197 201 203 203 205 201 204 204 201 202 205 207 207 206 208 211 215 218 217 206 200 201 201 199 195 208
32 95 114 105 82 79 108 115 106 107 115 139 138 160 177 177 174 170 173 187 188 184 191 195 198 187 183 188 187 185 185 187 186 188 189 189 195 197 200 201 203 203 197 202 204 207 206 205 208 209 210 211 214 214 219 224 209 196 199 198 195 193 202
56 60 56 62 84 85 64 60 84 83 71 76 277 242 125 158 182 176 184 186 192 195 196 203 198 186 184 185 183 183 184 185 187 188 189 192 196 195 196 198 199 198 195 205 209 214 211 206 209 212 215 217 219 218 220 226 217 188 195 197 192 194 206
64 59 50 49 48 60 70 63 54 44 57 169 245 284 180 133 160 192 189 192 189 196 205 204 196 182 171 176 179 180 182 184 186 188 189 192 192 193 195 192 192 195 197 201 203 207 211 207 207 211 216 216 220 222 220 222 223 184 180 181 188 194 202
69 76 73 57 35 24 44 52 93 126 117 75 314 279 275 113 145 194 206 196 192 203 205 192 173 173 170 170 176 178 180 182 185 186 188 187 187 186 186 186 192 193 197 200 200 205 209 211 208 208 213 210 213 219 219 214 214 184 169 180 185 193 198
55 76 71 65 54 52 62 68 47 39 40 25 4 353 342 358 331 215 199 198 209 210 186 167 172 169 166 168 174 175 177 179 180 182 181 179 175 179 185 186 188 192 195 195 197 203 206 210 215 213 208 205 203 213 212 210 201 188 177 179 189 192 197
59 63 58 50 38 31 52 46 36 37 27 10 4 347 332 343 334 296 220 204 221 199 168 171 168 168 165 165 169 174 174 173 171 173 176 175 174 175 178 177 184 188 187 189 194 198 202 206 209 213 214 201 208 196 201 200 201 201 186 191 191 196 198
56 60 53 45 40 26 34 43 27 10 360 353 339 305 309 329 302 300 264 235 211 182 175 165 167 164 164 166 168 169 170 167 166 169 171 169 168 171 170 175 181 183 186 187 191 193 200 202 196 205 207 209 198 178 166 179 157 24 30 150 216 230 227
47 50 56 44 26 14 14 37 41 10 359 16 12 352 323 274 266 278 251 254 182 172 166 161 158 161 165 166 166 166 164 163 164 168 167 164 163 168 174 178 174 182 183 182 186 187 191 184 179 186 189 183 192 186 168 94 70 73 56 86 133 156 175
50 51 51 40 21 13 21 8 5 9 16 18 1 349 343 338 175 147 285 327 120 152 150 150 151 157 161 161 161 164 161 162 162 161 162 157 164 167 173 174 174 178 179 179 183 178 174 175 174 176 168 178 170 165 112 71 73 69 71 75 96 109 149
46 54 49 28 16 12 9 19 14 36 30 19 352 345 338 354 13 19 12 40 45 93 126 134 141 146 148 151 153 153 153 155 154 155 154 152 147 152 162 165 169 168 169 173 174 170 169 167 170 168 165 171 171 117 79 83 66 64 62 41 49 54 80
48 36 28 34 25 22 24 25 40 41 35 15 345 346 343 351 359 357 2 17 43 81 107 119 128 134 139 141 143 144 144 147 145 144 138 123 127 145 163 164 166 161 156 169 170 167 168 154 160 166 170 154 106 99 97 78 74 60 63 58 61 54 37
17 27 25 37 28 18 32 40 42 42 33 11 356 349 343 351 11 10 7 354 31 74 101 112 119 122 130 137 137 146 142 148 135 116 106 92 78 60 37 358 45 95 75 17 301 192 155 130 88 87 85 94 108 113 103 102 90 127 300 91 75 62 37
6 10 31 28 21 13 30 55 60 48 28 357 356 348 348 353 7 5 360 356 12 74 88 112 117 121 129 138 141 142 135 125 109 115 111 109 102 91 63 46 46 33 81 69 59 70 73 98 106 115 107 88 60 78 125 132 150 159 157 164 172 345 299
8 9 23 13 28 22 59 73 70 67 37 347 343 332 336 18 20 16 6 7 8 81 102 84 85 77 76 90 112 122 118 110 110 104 105 107 105 97 98 83 47 40 40 56 72 83 82 80 81 78 85 105 111 75 86 111 129 150 175 180 194 206 207
9 9 356 38 65 114 89 69 82 98 68 355 345 356 24 22 20 12 3 6 54 74 76 82 86 86 86 93 97 92 100 110 111 110 107 104 108 111 113 105 99 58 32 32 55 76 80 82 83 86 88 96 112 123 105 120 146 161 166 170 164 151 131